Location: Unspecified
(0.0000°N, 0.0000°E)
Time: 00:31:22
(UTC+00:00)

STRELA 3 - Pass Details

Date: 23 May 2026
Orbit: 1496 x 1510 km, 82.5° (Epoch: 10 June)

Event Time Altitude Azimuth Distance (km) Brightness Sun altitude
Rises 02:29:46 0° 347° (NNW) 4,614 10.5 -47.3°
Reaches altitude 10° 02:32:42 10° 343° (NNW) 3,636 9.8 -46.7°
Enters shadow 02:33:05 12° 342° (NNW) 3,511 9.7 -46.6°
